This is the latest recevied weather packets stored in our database for station/object I2HLY-3. If no packets are shown the sender has not sent any weather packets the latest 10 day(s).
| Time | Temp. | Humidity | Pressure | Rain* | Wind** | Luminosity | Snow |
|---|---|---|---|---|---|---|---|
| 1778110346 | 11.11° C | 93% | 1009.4 hPa | 0 mm | - | - | - |
| 1778109452 | 11.67° C | 93% | 1009.4 hPa | 0 mm | - | - | - |
| 1778108554 | 11.67° C | 92% | 1009.3 hPa | 0 mm | - | - | - |
| 1778107636 | 11.67° C | 92% | 1009.2 hPa | 0 mm | - | - | - |
| 1778106742 | 11.67° C | 91% | 1009.1 hPa | 0 mm | - | - | - |
| 1778105844 | 11.67° C | 91% | 1009.2 hPa | 0 mm | - | - | - |
| 1778104945 | 11.67° C | 92% | 1009.1 hPa | 0 mm | - | - | - |
| 1778104049 | 11.67° C | 92% | 1009.1 hPa | 0 mm | - | - | - |
| 1778103150 | 11.67° C | 93% | 1009 hPa | 0 mm | - | - | - |
| 1778102248 | 11.67° C | 92% | 1009 hPa | 0 mm | - | - | - |
| 1778101354 | 11.67° C | 91% | 1009 hPa | 0 mm | - | - | - |
| 1778100455 | 12.22° C | 89% | 1008.8 hPa | 0 mm | - | - | - |
| 1778099536 | 11.67° C | 90% | 1008.8 hPa | 1.02 mm | - | - | - |
| 1778098643 | 12.22° C | 90% | 1008.7 hPa | 1.02 mm | - | - | - |
| 1778097744 | 12.22° C | 89% | 1008.6 hPa | 1.02 mm | - | - | - |
| 1778096844 | 12.78° C | 88% | 1008.5 hPa | 1.02 mm | - | - | - |
| 1778095939 | 12.78° C | 85% | 1008.1 hPa | 0 mm | - | - | - |
| 1778095040 | 12.78° C | 85% | 1008 hPa | 0 mm | - | - | - |
| 1778094141 | 12.78° C | 85% | 1007.8 hPa | 0 mm | - | - | - |
| 1778093242 | 12.78° C | 87% | 1007.9 hPa | 0 mm | - | - | - |
| 1778092347 | 12.22° C | 92% | 1007.9 hPa | 0 mm | - | - | - |
| 1778091449 | 12.22° C | 92% | 1007 hPa | 0 mm | - | - | - |
| 1778090549 | 12.22° C | 92% | 1006.7 hPa | 0 mm | - | - | - |
| 1778089655 | 12.78° C | 92% | 1006.7 hPa | 0 mm | - | - | - |
| 1778088756 | 12.78° C | 91% | 1006.4 hPa | 0 mm | - | - | - |
* Rain latest hour (hover to see other rain measurements)
** Current wind speed in m/s (hover to see current wind gust speed)